TRANSIT 5B-2 DEB, 25156

Orbit data source: Space-Track

TRANSIT 5B-2 DEB, 25156 is space debris in LEO originally from a launch on Thu, 05 Dec 1963 UTC launched from the Air Force Western Test Range (AFWTR). Debris objects in space refer to the collection of defunct objects orbiting the Earth. Examples of debris include non-operational satellites, rocket bodies, and fragments generated from explosions, collisions, or faulty payload assembly.

Loading next visibility...
Identifier
25156, 1963-049N
Orbit
LEO
Country
Flag of USUS
Related business
Manufacturer
Unknown
Mission
Spacecraft
Bus & Motor
Unknown
Mass
Unknown
Launch date (UTC)
1963-12-05 (62 years ago)
Launch vehicle
Unknown
Launch site
Air Force Western Test Range (AFWTR)
Object type
Payload
Rocket body
Debris
Shape & HBR
Unknown shape, 0.3 m
Radar Cross Section
Medium (>0.1 m² and <1 m²)

Expand to show TLE details & history
Last TLE update: 8 hours ago

TLE from 8 hours ago
0 TRANSIT 5B-2 DEB
1 25156U 63049N   25305.59711904  .00000875  00000-0  12123-2 0  9993
2 25156  89.9194  73.8282 0040489 330.9388  40.8113 13.57005922368165
Epoch: 2025-11-01T14:19Z
TLE epoch observation values (Epoch: 2025-11-01T14:19:51.085Z)
Latitude
12.01095°
Longitude
177.75749°
Altitude
1,026.096 km
Speed
7.351 km/s
True Right ascension
04h 55m 22s
True Declination
11° 56' 37"
Sunlit
Object was in full shadow at epoch
Visualization orbit readout
Latitude
Unknown
Longitude
Unknown
Altitude
Unknown
Speed
Unknown
Apparent Right ascension
Unknown
Apparent Declination
Unknown
Sunlit
N/A
Visualization observer readout
Local Sidereal Time
17:59:09
Azimuth
Unknown
Elevation
Unknown
Doppler factor
Unknown
Orbital elements
Apogee altitude
1,073.683 km
Perigee altitude
1,013.583 km
Semi-major axis
7,421.77 km
Eccentricity
0.00405
Inclination
89.9194°
RAAN
73.8282°
Arg. of periapsis
330.9388°
True anomaly
41.1157°
Mean anomaly
40.8113°
Eccentric anomaly
40.96338°
Mean motion
3.39455 °/min
Orbital period
106.05 mins
BSTAR
0.0012123
Loading maneuver chart data...
Computing Atmospheric mass density...
Loading historical data...
Loading historical data...
Loading historical data...
Loading historical data...
Loading historical data...
Loading historical data...
Loading historical data...

Documentation

Showing up to 5 results
|